| time (UTC) | temp F | wind direction | speed knots | gust knots | rain 1hr in | rain 24hr in | rain mn in | humidity % | barometer mb |
| 20260904043657 | 65 | 197 | 0.0 | 0.0 | 0.00 | 0.00 | 0.23 | 98 | 1015.6 |
| 20260904043551 | 65 | 197 | 0.0 | 0.0 | 0.00 | 0.00 | 0.23 | 98 | 1015.6 |
| 20260904043446 | 65 | 198 | 0.0 | 0.0 | 0.00 | 0.00 | 0.23 | 98 | 1015.9 |
| 20260904043340 | 65 | 198 | 0.0 | 0.0 | 0.00 | 0.00 | 0.23 | 98 | 1015.9 |
| 20260904043234 | 65 | 198 | 0.0 | 0.0 | 0.00 | 0.00 | 0.23 | 98 | 1015.9 |
| 20260904043129 | 65 | 198 | 0.0 | 0.0 | 0.00 | 0.00 | 0.23 | 98 | 1015.9 |
| 20260904043023 | 65 | 198 | 0.0 | 0.0 | 0.00 | 0.00 | 0.23 | 98 | 1015.9 |
| 20260904042956 | 65 | 198 | 0.0 | 0.0 | 0.00 | 0.00 | 0.23 | 98 | 1015.6 |
| 20260904042952 | 65 | 198 | 0.0 | 0.0 | 0.00 | 0.00 | 0.23 | 98 | 1015.9 |
| 20260904042944 | 65 | 198 | 0.0 | 0.0 | 0.00 | 0.00 | 0.23 | 98 | 1015.9 |
| 20260904042706 | 65 | 198 | 0.0 | 0.0 | 0.00 | 0.00 | 0.23 | 98 | 1015.6 |
| 20260904042600 | 65 | 198 | 0.0 | 0.0 | 0.00 | 0.00 | 0.23 | 98 | 1015.6 |
| 20260904042455 | 65 | 198 | 0.0 | 0.0 | 0.00 | 0.00 | 0.23 | 98 | 1015.6 |
| 20260904042349 | 65 | 198 | 0.0 | 0.0 | 0.00 | 0.00 | 0.23 | 98 | 1015.6 |
| 20260904042216 | 65 | 197 | 0.0 | 0.0 | 0.00 | 0.00 | 0.23 | 98 | 1015.9 |
| 20260904042138 | 65 | 197 | 0.0 | 0.0 | 0.00 | 0.00 | 0.23 | 98 | 1015.6 |
| 20260904042032 | 65 | 197 | 0.0 | 0.0 | 0.00 | 0.00 | 0.23 | 98 | 1015.9 |
| 20260904041926 | 65 | 197 | 0.0 | 0.0 | 0.00 | 0.00 | 0.23 | 98 | 1015.9 |
| 20260904041820 | 65 | 197 | 0.0 | 0.0 | 0.00 | 0.00 | 0.23 | 98 | 1015.9 |
| 20260904041714 | 65 | 197 | 0.0 | 0.0 | 0.00 | 0.00 | 0.23 | 98 | 1015.6 |
| 20260904041609 | 65 | 198 | 0.0 | 0.0 | 0.00 | 0.00 | 0.23 | 98 | 1015.9 |
| 20260904041503 | 65 | 202 | 0.0 | 0.0 | 0.00 | 0.00 | 0.23 | 98 | 1015.6 |
| 20260904041357 | 65 | 209 | 0.0 | 0.0 | 0.00 | 0.00 | 0.23 | 98 | 1015.6 |
| 20260904041252 | 65 | 214 | 0.0 | 0.0 | 0.00 | 0.00 | 0.23 | 98 | 1015.6 |
| 20260904041203 | 65 | 214 | 0.0 | 0.0 | 0.00 | 0.00 | 0.23 | 98 | 1015.6 |
| 20260904041148 | 65 | 214 | 0.0 | 0.0 | 0.00 | 0.00 | 0.23 | 98 | 1015.6 |
| 20260904041041 | 65 | 214 | 0.0 | 0.0 | 0.00 | 0.00 | 0.23 | 98 | 1015.6 |
| 20260904040935 | 65 | 214 | 0.0 | 0.0 | 0.00 | 0.00 | 0.23 | 98 | 1015.3 |
| 20260904040829 | 65 | 214 | 0.0 | 0.0 | 0.00 | 0.00 | 0.23 | 98 | 1015.6 |
| 20260904040723 | 65 | 213 | 0.0 | 0.0 | 0.00 | 0.00 | 0.23 | 98 | 1015.6 |
| 20260904040656 | 65 | 210 | 0.0 | 0.0 | 0.00 | 0.00 | 0.23 | 98 | 1015.6 |
| 20260904040617 | 65 | 210 | 0.0 | 0.0 | 0.00 | 0.00 | 0.23 | 98 | 1015.6 |
| 20260904040511 | 65 | 210 | 0.0 | 0.0 | 0.00 | 0.00 | 0.23 | 98 | 1015.3 |
| 20260904040405 | 65 | 210 | 0.0 | 0.0 | 0.00 | 0.00 | 0.23 | 98 | 1015.3 |
| 20260904040313 | 65 | 208 | 0.0 | 0.0 | 0.00 | 0.00 | 0.23 | 98 | 1015.3 |
| 20260904040154 | 65 | 208 | 0.0 | 0.0 | 0.00 | 0.00 | 0.23 | 98 | 1015.3 |
| 20260903153637 | 67 | 311 | 7.8 | 27.8 | 0.67 | 0.72 | 0.76 | 94 | 1017.7 |
| 20260903153530 | 68 | 343 | 7.8 | 27.8 | 0.59 | 0.64 | 0.69 | 94 | 1016.9 |
| 20260903153425 | 69 | 244 | 13.9 | 27.8 | 0.52 | 0.57 | 0.61 | 93 | 1016.9 |
| 20260903153319 | 70 | 237 | 0.0 | 18.2 | 0.41 | 0.46 | 0.54 | 93 | 1016.6 |
| 20260903153242 | 71 | 281 | 6.1 | 18.2 | 0.41 | 0.46 | 0.49 | 93 | 1016.6 |
| 20260903153214 | 72 | 341 | 10.4 | 18.2 | 0.28 | 0.33 | 0.45 | 92 | 1016.9 |
| 20260903153108 | 73 | 339 | 12.2 | 18.2 | 0.17 | 0.22 | 0.32 | 91 | 1016.9 |
| 20260903153002 | 76 | 283 | 10.4 | 18.2 | 0.04 | 0.09 | 0.21 | 89 | 1016.9 |
| 20260903152857 | 76 | 78 | 7.0 | 13.9 | 0.02 | 0.07 | 0.08 | 89 | 1017.3 |
| 20260903152750 | 77 | 261 | 3.5 | 5.2 | 0.02 | 0.07 | 0.06 | 89 | 1016.9 |
| 20260903152735 | 77 | 261 | 3.5 | 5.2 | 0.02 | 0.07 | 0.06 | 89 | 1016.6 |
| 20260903152646 | 77 | 233 | 2.6 | 3.5 | 0.00 | 0.05 | 0.06 | 89 | 1016.6 |
| 20260903152539 | 77 | 227 | 0.9 | 0.9 | 0.00 | 0.05 | 0.04 | 89 | 1015.9 |
| 20260903152434 | 77 | 225 | 0.0 | 0.9 | 0.00 | 0.05 | 0.04 | 88 | 1015.6 |
| 20260903152328 | 77 | 225 | 0.9 | 0.9 | 0.00 | 0.05 | 0.04 | 88 | 1015.6 |
| 20260903152222 | 77 | 211 | 0.0 | 0.9 | 0.00 | 0.05 | 0.04 | 88 | 1015.3 |
| 20260903152117 | 77 | 206 | 0.0 | 0.9 | 0.00 | 0.05 | 0.04 | 88 | 1015.3 |
| 20260903152011 | 78 | 206 | 0.0 | 0.9 | 0.00 | 0.05 | 0.04 | 88 | 1015.3 |
| 20260903151906 | 78 | 206 | 0.9 | 0.9 | 0.00 | 0.05 | 0.04 | 87 | 1014.9 |
| 20260903151759 | 78 | 205 | 0.9 | 0.9 | 0.00 | 0.05 | 0.04 | 87 | 1014.9 |
| 20260903151722 | 78 | 204 | 0.0 | 0.9 | 0.00 | 0.05 | 0.04 | 86 | 1014.9 |
| 20260903151653 | 78 | 195 | 0.0 | 0.9 | 0.00 | 0.05 | 0.04 | 86 | 1014.9 |
| 20260903151548 | 78 | 195 | 0.0 | 0.9 | 0.00 | 0.05 | 0.04 | 86 | 1014.9 |
| 20260903151442 | 78 | 195 | 0.0 | 0.9 | 0.00 | 0.05 | 0.04 | 86 | 1014.6 |
| 20260903151337 | 78 | 195 | 0.0 | 0.9 | 0.00 | 0.05 | 0.04 | 86 | 1014.9 |
| 20260903151230 | 78 | 195 | 0.0 | 0.9 | 0.00 | 0.05 | 0.04 | 86 | 1014.9 |
| 20260903151215 | 78 | 194 | 0.0 | 0.9 | 0.00 | 0.05 | 0.04 | 86 | 1014.9 |
| 20260903151125 | 78 | 196 | 0.0 | 0.9 | 0.00 | 0.05 | 0.04 | 86 | 1014.6 |
| 20260903151019 | 78 | 198 | 0.0 | 0.9 | 0.00 | 0.05 | 0.04 | 86 | 1014.9 |
| 20260903150914 | 78 | 185 | 0.0 | 0.9 | 0.00 | 0.05 | 0.04 | 86 | 1014.6 |
| 20260903150820 | 78 | 182 | 0.0 | 0.9 | 0.00 | 0.05 | 0.04 | 86 | 1014.2 |
| 20260903150708 | 78 | 213 | 0.0 | 0.9 | 0.00 | 0.05 | 0.04 | 86 | 1014.9 |
| 20260903150702 | 78 | 214 | 0.0 | 0.9 | 0.00 | 0.05 | 0.04 | 86 | 1014.9 |
| 20260903150609 | 78 | 214 | 0.0 | 0.9 | 0.00 | 0.05 | 0.04 | 86 | 1014.6 |
| 20260903150451 | 78 | 215 | 0.0 | 0.9 | 0.00 | 0.05 | 0.04 | 86 | 1014.6 |
| 20260903150345 | 78 | 214 | 0.0 | 1.7 | 0.00 | 0.05 | 0.04 | 86 | 1014.6 |
| 20260903150240 | 78 | 214 | 0.0 | 3.5 | 0.00 | 0.05 | 0.04 | 86 | 1014.9 |
| 20260903150202 | 78 | 214 | 0.0 | 3.5 | 0.00 | 0.05 | 0.04 | 85 | 1014.9 |
| 20260903150134 | 78 | 214 | 0.0 | 3.5 | 0.00 | 0.05 | 0.04 | 85 | 1014.2 |
| 20260903150029 | 78 | 214 | 0.0 | 3.5 | 0.00 | 0.05 | 0.04 | 85 | 1014.2 |
| 20260903145923 | 79 | 214 | 0.0 | 3.5 | 0.00 | 0.05 | 0.04 | 84 | 1014.2 |
| 20260903145817 | 79 | 195 | 0.0 | 3.5 | 0.00 | 0.05 | 0.04 | 84 | 1014.2 |